PE2KMV-10 Weather Reports


Display with metric or nautical units.
time (UTC)temp
F
wind
direction
speed
MPH
gust
MPH
rain 1hr
in
rain 24hr
in
rain mn
in
humidity
%
barometer
mb
20200405094548 56 129 2.0 0.0 0.00 0.00 0.00 100 1013.8
20200405094047 55 154 3.0 0.0 0.00 0.00 0.00 100 1014.2
20200405093549 55 153 2.0 0.0 0.00 0.00 0.00 100 1013.9
20200405093048 54 174 7.0 0.0 0.00 0.00 0.00 100 1013.8
20200405092549 54 190 5.0 0.0 0.00 0.00 0.00 100 1014.0
20200405092042 54 184 6.0 0.0 0.00 0.00 0.00 100 1013.9
20200405091540 53 189 10.0 0.0 0.00 0.00 0.00 100 1014.0
20200405091039 53 176 9.0 0.0 0.00 0.00 0.00 100 1014.2
20200405090600 53 177 6.0 0.0 0.00 0.00 0.00 100 1013.8
20200405090058 53 179 2.0 0.0 0.00 0.00 0.00 100 1013.8
20200405085555 52 158 5.0 0.0 0.00 0.00 0.00 100 1014.1
20200405085038 52 142 1.0 0.0 0.00 0.00 0.00 100 1013.9
20200405084537 51 142 3.0 0.0 0.00 0.00 0.00 100 1013.8
20200405084039 51 123 0.0 0.0 0.00 0.00 0.00 100 1013.9
20200405083558 51 122 3.0 0.0 0.00 0.00 0.00 100 1013.8
20200405083048 51 144 3.0 0.0 0.00 0.00 0.00 100 1013.9
20200405082549 50 133 7.0 0.0 0.00 0.00 0.00 100 1013.7
20200405082050 50 121 1.0 0.0 0.00 0.00 0.00 100 1013.7
20200405081549 49 56 3.0 0.0 0.00 0.00 0.00 100 1013.7
20200405081045 49 56 2.0 0.0 0.00 0.00 0.00 100 1013.8
20200405080605 49 37 0.0 0.0 0.00 0.00 0.00 100 1014.0
20200405080050 48 36 0.0 0.0 0.00 0.00 0.00 100 1014.2
20200405075540 48 31 0.0 0.0 0.00 0.00 0.00 100 1013.8
20200405075039 47 31 1.0 0.0 0.00 0.00 0.00 100 1013.8
20200405074547 46 31 0.0 0.0 0.00 0.00 0.00 100 1013.8
20200405074046 47 31 0.0 0.0 0.00 0.00 0.00 100 1013.8
20200405073548 46 31 0.0 0.0 0.00 0.00 0.00 100 1013.7
20200405073047 46 31 0.0 0.0 0.00 0.00 0.00 100 1013.9
20200405072545 45 31 0.0 0.0 0.00 0.00 0.00 100 1013.9
20200405072050 44 31 0.0 0.0 0.00 0.00 0.00 100 1014.0
20200405071552 44 31 0.0 0.0 0.00 0.00 0.00 100 1014.0
20200405071053 43 31 0.0 0.0 0.00 0.00 0.00 100 1014.0
20200405070552 43 31 0.0 0.0 0.00 0.00 0.00 100 1014.0
20200405070059 42 31 0.0 0.0 0.00 0.00 0.00 100 1014.5
20200405065543 42 31 0.0 0.0 0.00 0.00 0.00 100 1014.5
20200405065045 41 31 0.0 0.0 0.00 0.00 0.00 100 1014.1
20200405064543 41 31 0.0 0.0 0.00 0.00 0.00 100 1014.1
20200405064043 40 31 0.0 0.0 0.00 0.00 0.00 100 1014.1
20200405063552 40 31 0.0 0.0 0.00 0.00 0.00 100 1014.1
20200405063041 40 31 0.0 0.0 0.00 0.00 0.00 100 1014.1
20200405062541 40 31 0.0 0.0 0.00 0.00 0.00 100 1014.0
20200405062053 40 31 0.0 0.0 0.00 0.00 0.00 100 1014.0
20200405061549 39 31 0.0 0.0 0.00 0.00 0.00 100 1014.4
20200405061050 39 31 0.0 0.0 0.00 0.00 0.00 100 1014.0
20200405060600 39 31 0.0 0.0 0.00 0.00 0.00 100 1014.1
20200405060057 39 31 0.0 0.0 0.00 0.00 0.00 100 1014.1
20200405055545 38 31 0.0 0.0 0.00 0.00 0.00 100 1014.0
20200405055056 39 31 0.0 0.0 0.00 0.00 0.00 100 1014.0
20200405054537 39 31 0.0 0.0 0.00 0.00 0.00 100 1014.4
20200405054035 39 31 0.0 0.0 0.00 0.00 0.00 100 1014.0
20200405053558 39 31 0.0 0.0 0.00 0.00 0.00 100 1013.9
20200405053044 38 31 0.0 0.0 0.00 0.00 0.00 100 1013.9
20200405052545 38 31 0.0 0.0 0.00 0.00 0.00 100 1013.8
20200405052045 38 31 0.0 0.0 0.00 0.00 0.00 100 1013.9
20200405051540 39 31 0.0 0.0 0.00 0.00 0.00 100 1013.8
20200405051040 38 31 0.0 0.0 0.00 0.00 0.00 100 1013.9
20200405050555 38 31 0.0 0.0 0.00 0.00 0.00 100 1013.8
20200405050054 38 31 0.0 0.0 0.00 0.00 0.00 100 1013.7
20200405045543 38 31 0.0 0.0 0.00 0.00 0.00 100 1013.7
20200405045041 39 31 0.0 0.0 0.00 0.00 0.00 100 1013.7
20200405044543 38 31 0.0 0.0 0.00 0.00 0.00 100 1013.7
20200405044043 38 31 0.0 0.0 0.00 0.00 0.00 100 1014.1
20200405043554 39 31 0.0 0.0 0.00 0.00 0.00 100 1013.7
20200405043040 38 31 0.0 0.0 0.00 0.00 0.00 100 1013.7
20200405042542 38 31 0.0 0.0 0.00 0.00 0.00 100 1013.6
20200405042051 39 31 0.0 0.0 0.00 0.00 0.00 100 1013.7
20200405041552 39 31 0.0 0.0 0.00 0.00 0.00 100 1013.7
20200405041051 39 31 0.0 0.0 0.00 0.00 0.00 100 1013.7
20200405040554 40 31 0.0 0.0 0.00 0.00 0.00 100 1013.7
20200405040052 39 31 0.0 0.0 0.00 0.00 0.00 100 1013.7
20200405035540 40 31 0.0 0.0 0.00 0.00 0.00 100 1013.6
20200405035044 40 31 0.0 0.0 0.00 0.00 0.00 100 1013.7
20200405034545 40 31 0.0 0.0 0.00 0.00 0.00 100 1013.5
20200405034045 40 31 0.0 0.0 0.00 0.00 0.00 100 1013.7
20200405033606 40 31 0.0 0.0 0.00 0.00 0.00 100 1013.6
20200405033041 40 31 0.0 0.0 0.00 0.00 0.00 100 1014.1
20200405032538 40 31 0.0 0.0 0.00 0.00 0.00 100 1013.7
20200405032047 40 31 0.0 0.0 0.00 0.00 0.00 100 1013.6
20200405031546 40 31 0.0 0.0 0.00 0.00 0.00 100 1013.7
20200405031049 40 31 0.0 0.0 0.00 0.00 0.00 100 1013.7
20200405030548 40 31 0.0 0.0 0.00 0.00 0.00 100 1014.2
20200405030057 40 31 0.0 0.0 0.00 0.00 0.00 100 1013.6
20200405025541 40 31 0.0 0.0 0.00 0.00 0.00 100 1013.7
20200405025040 41 31 0.0 0.0 0.00 0.00 0.00 100 1013.7
20200405024548 40 31 0.0 0.0 0.00 0.00 0.00 100 1013.7
20200405024047 40 31 0.0 0.0 0.00 0.00 0.00 100 1013.8
20200405023551 40 31 0.0 0.0 0.00 0.00 0.00 100 1013.9
20200405023046 41 31 0.0 0.0 0.00 0.00 0.00 100 1013.9
20200405022539 41 31 0.0 0.0 0.00 0.00 0.00 100 1013.9
20200405022039 41 31 0.0 0.0 0.00 0.00 0.00 100 1013.9
20200405021547 41 31 0.0 0.0 0.00 0.00 0.00 100 1013.9
20200405021041 41 31 0.0 0.0 0.00 0.00 0.00 100 1014.0
20200405020603 42 31 0.0 0.0 0.00 0.00 0.00 100 1014.0
20200405020110 42 31 0.0 0.0 0.00 0.00 0.00 100 1014.0
20200405015556 42 31 0.0 0.0 0.00 0.00 0.00 100 1013.9
20200405015103 42 31 0.0 0.0 0.00 0.00 0.00 100 1013.9
20200404175559 54 31 0.0 0.0 0.00 0.00 0.00 100 1014.5
20200404175059 54 31 0.0 0.0 0.00 0.00 0.00 100 1014.5
20200404174600 56 31 0.0 0.0 0.00 0.00 0.00 100 1011.6
20200404174100 55 31 0.0 0.0 0.00 0.00 0.00 100 1014.4
20200404173621 56 31 0.0 0.0 0.00 0.00 0.00 100 1014.4
20200404173046 0 0.0 0.0 0.00 0.00 0.00 100 1014.3
20200404172557 56 31 0.0 0.0 0.00 0.00 0.00 100 1014.4
20200404172108 56 31 0.0 0.0 0.00 0.00 0.00 100 1014.4
20200404171606 56 31 0.0 0.0 0.00 0.00 0.00 100 1014.4
20200404171104 56 31 0.0 0.0 0.00 0.00 0.00 100 1014.4
20200404170616 57 31 0.0 0.0 0.00 0.00 0.00 100 1014.4
20200404170107 57 31 0.0 0.0 0.00 0.00 0.00 100 1014.4
20200404165601 57 31 0.0 0.0 0.00 0.00 0.00 100 1014.2
20200404165102 57 31 0.0 0.0 0.00 0.00 0.00 100 1014.6
20200404164559 57 31 0.0 0.0 0.00 0.00 0.00 100 1014.3
20200404164101 57 31 0.0 0.0 0.00 0.00 0.00 100 1014.2
20200404163622 57 31 0.0 0.0 0.00 0.00 0.00 100 1014.3
20200404163102 57 31 0.0 0.0 0.00 0.00 0.00 100 1014.2
20200404162559 58 31 1.0 0.0 0.00 0.00 0.00 100 1014.4
20200404162059 58 31 0.0 0.0 0.00 0.00 0.00 100 1014.4
20200404161604 58 31 0.0 0.0 0.00 0.00 0.00 100 1014.7
20200404161102 58 31 0.0 0.0 0.00 0.00 0.00 100 1014.5
20200404160623 58 31 0.0 0.0 0.00 0.00 0.00 100 1014.8
20200404160123 58 32 0.0 0.0 0.00 0.00 0.00 100 1014.5
20200404155609 59 32 0.0 0.0 0.00 0.00 0.00 100 1014.4
20200404155107 59 32 0.0 0.0 0.00 0.00 0.00 100 1014.5
20200404154610 59 32 2.0 0.0 0.00 0.00 0.00 100 1014.5
20200404154107 58 32 1.0 0.0 0.00 0.00 0.00 100 1014.4
20200404153617 59 32 0.0 0.0 0.00 0.00 0.00 100 1014.5
20200404153100 59 32 0.0 0.0 0.00 0.00 0.00 100 1014.5
20200404152609 59 32 1.0 0.0 0.00 0.00 0.00 100 1014.5
20200404152113 59 32 0.0 0.0 0.00 0.00 0.00 100 1014.3
20200404151558 59 26 0.0 0.0 0.00 0.00 0.00 100 1014.6
20200404151058 58 26 0.0 0.0 0.00 0.00 0.00 100 1014.5
20200404150618 58 26 0.0 0.0 0.00 0.00 0.00 100 1014.8
20200404150117 58 26 0.0 0.0 0.00 0.00 0.00 100 1014.5
20200404145600 58 26 0.0 0.0 0.00 0.00 0.00 100 1014.6
20200404145110 58 26 0.0 0.0 0.00 0.00 0.00 100 1014.7
20200404144608 58 26 0.0 0.0 0.00 0.00 0.00 100 1014.6
20200404144109 59 26 3.0 0.0 0.00 0.00 0.00 100 1014.7
20200404143622 59 90 1.0 0.0 0.00 0.00 0.00 100 1014.6
20200404143110 59 90 1.0 0.0 0.00 0.00 0.00 100 1014.7
20200404142556 59 90 1.0 0.0 0.00 0.00 0.00 100 1014.8
20200404142056 60 90 1.0 0.0 0.00 0.00 0.00 100 1014.8
20200404141554 59 56 0.0 0.0 0.00 0.00 0.00 100 1014.8
20200404141053 59 55 1.0 0.0 0.00 0.00 0.00 100 1015.0
20200404140615 59 51 0.0 0.0 0.00 0.00 0.00 100 1014.9
20200404140117 59 101 0.0 0.0 0.00 0.00 0.00 100 1015.1
20200404135603 60 118 2.0 0.0 0.00 0.00 0.00 100 1015.1
20200404135112 60 120 1.0 0.0 0.00 0.00 0.00 100 1015.2
20200404134551 59 120 0.0 0.0 0.00 0.00 0.00 100 1015.1
20200404134108 60 132 2.0 0.0 0.00 0.00 0.00 100 1015.2
20200404133621 61 131 0.0 0.0 0.00 0.00 0.00 100 1015.2
20200404133112 60 132 0.0 0.0 0.00 0.00 0.00 100 1015.3
20200404132601 62 132 0.0 0.0 0.00 0.00 0.00 100 1015.7
20200404132104 61 131 0.0 0.0 0.00 0.00 0.00 100 1015.4
20200404131551 61 137 1.0 0.0 0.00 0.00 0.00 100 1015.5
20200404131051 61 104 0.0 0.0 0.00 0.00 0.00 100 1015.4
20200404130614 59 103 4.0 0.0 0.00 0.00 0.00 100 1015.4
20200404130124 59 104 0.0 0.0 0.00 0.00 0.00 100 1015.5
20200404125612 58 103 0.0 0.0 0.00 0.00 0.00 100 1015.7
20200404125109 58 100 0.0 0.0 0.00 0.00 0.00 100 1015.8
20200404124608 58 101 0.0 0.0 0.00 0.00 0.00 100 1016.1
20200404124050 58 101 1.0 0.0 0.00 0.00 0.00 100 1015.8
20200404123621 58 101 0.0 0.0 0.00 0.00 0.00 100 1015.9
20200404123108 57 102 1.0 0.0 0.00 0.00 0.00 100 1016.0
20200404122610 56 101 1.0 0.0 0.00 0.00 0.00 100 1016.0
20200404122108 55 75 1.0 0.0 0.00 0.00 0.00 100 1016.0
20200404121609 55 75 0.0 0.0 0.00 0.00 0.00 100 1016.4
20200404121111 55 75 1.0 0.0 0.00 0.00 0.00 100 1016.1
20200404120611 55 75 0.0 0.0 0.00 0.00 0.00 100 1016.4
20200404120117 55 75 0.0 0.0 0.00 0.00 0.00 100 1016.5
20200404115606 54 75 0.0 0.0 0.00 0.00 0.00 100 1016.6
20200404115052 54 75 1.0 0.0 0.00 0.00 0.00 100 1016.7
20200404114556 54 75 2.0 0.0 0.00 0.00 0.00 100 1017.1
20200404114053 53 75 0.0 0.0 0.00 0.00 0.00 100 1016.9
20200404113623 53 115 1.0 0.0 0.00 0.00 0.00 100 1017.3
20200404113050 53 119 0.0 0.0 0.00 0.00 0.00 100 1017.1
20200404112552 53 120 1.0 0.0 0.00 0.00 0.00 100 1017.1
20200404112053 52 120 1.0 0.0 0.00 0.00 0.00 100 1017.2
20200404111553 52 120 0.0 0.0 0.00 0.00 0.00 100 1017.3
20200404111054 52 120 0.0 0.0 0.00 0.00 0.00 100 1017.2
20200404110615 52 129 2.0 0.0 0.00 0.00 0.00 100 1017.1
20200404110113 51 144 1.0 0.0 0.00 0.00 0.00 100 1017.1
20200404105606 51 144 1.0 0.0 0.00 0.00 0.00 100 1017.2
20200404105104 51 151 2.0 0.0 0.00 0.00 0.00 100 1017.1
20200404104601 51 152 2.0 0.0 0.00 0.00 0.00 100 1017.1
20200404104100 50 152 0.0 0.0 0.00 0.00 0.00 100 1017.2
20200404103605 50 154 1.0 0.0 0.00 0.00 0.00 100 1017.2
20200404103101 51 154 2.0 0.0 0.00 0.00 0.00 100 1017.2
20200404102604 50 154 0.0 0.0 0.00 0.00 0.00 100 1017.4
20200404102055 49 154 0.0 0.0 0.00 0.00 0.00 100 1017.4
20200404101558 49 154 1.0 0.0 0.00 0.00 0.00 100 1017.3
20200404101057 49 155 0.0 0.0 0.00 0.00 0.00 100 1017.4
20200404100620 49 155 3.0 0.0 0.00 0.00 0.00 100 1017.6
20200404100122 49 156 3.0 0.0 0.00 0.00 0.00 100 1017.5
20200404095556 48 157 0.0 0.0 0.00 0.00 0.00 100 1017.3
20200404095051 48 157 3.0 0.0 0.00 0.00 0.00 100 1017.3